Weather Roundup
Issued by NWS

Home | Current Version | Previous Version | Text Only | Print | Product List | Glossary On
Versions: 1 2 3 4 5 6 7 8 9 10 11 12 13 14 15 16 17 18 19 20 21 22 23 24 25 26 27 28 29 30 31 32 33 34 35 36 37 38 39 40 41 42 43 44 45 46 47 48 49 50
000
NZUS93 KARX 302310
HRRWXR

CURRENT HOURLY OBSERVATIONS ACROSS
MUCH OF THE UPPER MISSISSIPPI VALLEY
NATIONAL WEATHER SERVICE LA CROSSE WI
600 PM CDT THU OCT 30 2014


...SOUTHEAST MINNESOTA...


CITY           SKY/WX    TMP DP  RH WIND       PRES   REMARKS
ROCHESTER      CLOUDY    45  37  73 NW6       30.12R
ROCHESTER/MAYO CLOUDY    46  35  66 NW8       30.12R
WINONA         CLOUDY    48  41  76 CALM      30.10R
AUSTIN         CLOUDY    46  36  66 N7        30.12R
ALBERT LEA     CLOUDY    48  36  61 NW7       30.13R
DODGE CENTER   CLOUDY    45  37  76 NW8       30.12R
PRESTON        CLOUDY    44  37  76 NW6       30.10R
OWATONNA       CLEAR     48  36  61 NW12      30.14R
FARIBAULT      CLOUDY    46  36  66 NW10G17   30.15R
$$

...ELSEWHERE IN MINNESOTA...


CITY           SKY/WX    TMP DP  RH WIND       PRES   REMARKS
MINNEAPOLIS    CLOUDY    44  34  67 NW14G26   30.17R
INTNL FALLS    CLEAR     28  21  75 N17G25    30.28R WCI  16
DULUTH         MOCLDY    38  27  64 NW23G31   30.12R WCI  27
RED WING       CLOUDY    46  34  61 N7        30.13R
REDWOOD FALLS  CLOUDY    44  34  67 N20G31    30.23R
MANKATO        MOCLDY    46  34  61 N20       30.17R
WORTHINGTON    CLOUDY    43  36  75 N25       30.23R
FAIRMONT       CLOUDY    46  32  57 NW17G25   30.17R
$$

...SOUTHWEST WISCONSIN...


CITY           SKY/WX    TMP DP  RH WIND       PRES   REMARKS
LA CROSSE      CLOUDY    46  38  73 CALM      30.09R
PRAIRIE DU CHI CLOUDY    48  38  68 CALM      30.08R
BOSCOBEL       CLOUDY    50  37  61 NW3       30.09R
LONE ROCK      CLOUDY    52  37  56 CALM      30.07S
PLATTEVILLE    MOCLDY    48  38  66 CALM      30.08S
FORT MC COY    CLOUDY    45  36  70 W5        30.08R
CAMP DOUGLAS   CLOUDY    46  39  76 W6        30.06R
VIROQUA        CLOUDY    44  37  76 W3        30.07S
WIS DELLS      CLOUDY    46  35  66 W3        30.05S
$$

...ELSEWHERE IN WISCONSIN...


CITY           SKY/WX    TMP DP  RH WIND       PRES   REMARKS
MILWAUKEE      MOCLDY    50  33  52 W7        30.05S
MADISON        MOCLDY    48  35  60 CALM      30.05F
GREEN BAY      CLOUDY    47  37  68 SW5       30.01F
EAU CLAIRE     CLOUDY    44  35  70 N13G18    30.11R
BLACK RVR FLS  CLOUDY    48  34  60 NW3       30.06S
MEDFORD        CLOUDY    39  33  80 NW7       30.05S WCI  34
WAUSAU         CLOUDY    43  34  70 NW9       30.02S
WIS RAPIDS     CLOUDY    46  34  62 NW6       30.06R
MARSHFIELD     CLOUDY    44  34  67 NW7       30.04S
RICE LAKE      CLOUDY    41  33  72 W8        30.13S
$$

...NORTHEAST IOWA...


CITY           SKY/WX    TMP DP  RH WIND       PRES   REMARKS
DECORAH        CLOUDY    46  39  76 CALM      30.08S
MASON CITY     CLOUDY    50  38  63 N15       30.12R
CHARLES CITY   CLOUDY    48  37  66 NW5       30.10R
OELWEIN        CLOUDY    50  37  62 N5        30.09R
$$

...ELSEWHERE IN IOWA...


CITY           SKY/WX    TMP DP  RH WIND       PRES   REMARKS
DES MOINES     PTCLDY    59  37  44 NW12      30.06R
IOWA CITY      CLOUDY    52  38  58 E6        30.07R
FORT DODGE     CLOUDY    54  36  50 N10G20    30.12R
$$

...NORTHERN ILLINOIS...


CITY           SKY/WX    TMP DP  RH WIND       PRES   REMARKS
CHICAGO-OHARE  CLOUDY    49  35  58 SW8       30.06R
CHICAGO-MIDWAY CLOUDY    50  36  58 W8        30.07R
MOLINE         CLOUDY    50  37  61 NE5       30.07R
ROCKFORD       CLOUDY    49  36  61 W5        30.08S
PEORIA         LGT RAIN  48  43  82 E7        30.06S
$$

NOTE: "FAIR" INDICATES FEW OR NO CLOUDS BELOW 12,000 FEET WITH NO
SIGNIFICANT WEATHER AND/OR OBSTRUCTIONS TO VISIBILITY. WIND
SPEEDS ARE IN MILES-PER-HOUR.



USA.gov is the U.S. government's official web portal to all federal, state and local government web resources and services.